Starlink 11431

operational
NORAD ID: 62890 Int'l Des: 2025-024 Owner: SPXS Country: US Constellation: starlink
LEOCIRCULAR

Starlink 11431について

説明を読み込み中...

リアルタイム位置

3D地球を読み込み中...

次回通過

高度履歴

Altitude vs Time

uPlot chart will show altitude changes over time

軌道要素

1 62890U 25024M 25305.66668981 -.00033361 00000-0 -25744-3 0 9996
2 62890 43.0007 233.5804 0001550 259.4258 218.1996 15.70848659 6063
Epoch: Nov 1, 2025 • Age: 12 hours

現在のステータス

高度 356.8 km
速度 7.70 km/s
衛星直下点 23.84°N, 84.12°W
打ち上げ日 Feb 4, 2025
運用期間 0.7 years
タイプ internet

技術仕様

分類 Payload
質量 960.00 kg
乾燥質量 910.00 kg
総質量 960.00 kg
長さ 0.30 m
直径 4.10 m
スパン 29.00 m
形状 Box + pan
製造者 SPXS
バスタイプ Starlink V2MD
フェーズステータス In Orbit
所有者/国 SPXS/US

大規模コンステレーション

Loading constellations...